ECSPL EYKA-EYVI

Flight info

Callsign ECSPL
Flight time 0h 29m
Altitude 9000
Route OTNA1B OTNAV OTNA2A
Aircraft PC12/L-VD/A

Departure

Time 2026-05-07 17:06
Airport Kaunas International Airport (EYKA)

Arrival

Time 2026-05-07 17:35
Airport Vilnius International Airport (EYVI)
Time Latitude Longitude Altitude Speed Heading
2026-05-07 16:58 54.96581 24.07700 248 ft 0 kts 357°
2026-05-07 16:59 54.96569 24.07678 248 ft 5 kts 172°
2026-05-07 16:59 54.96553 24.07766 248 ft 12 kts 80°
2026-05-07 17:00 54.96554 24.07781 248 ft 13 kts 86°
2026-05-07 17:00 54.96559 24.07902 249 ft 18 kts 84°
2026-05-07 17:00 54.96572 24.08153 251 ft 24 kts 84°
2026-05-07 17:00 54.96584 24.08438 252 ft 17 kts 83°
2026-05-07 17:01 54.96597 24.08675 254 ft 23 kts 85°
2026-05-07 17:01 54.96608 24.08930 255 ft 23 kts 85°
2026-05-07 17:01 54.96624 24.09238 257 ft 25 kts 88°
2026-05-07 17:01 54.96631 24.09436 258 ft 18 kts 84°
2026-05-07 17:02 54.96625 24.09614 259 ft 13 kts 132°
2026-05-07 17:02 54.96554 24.09649 259 ft 4 kts 175°
2026-05-07 17:02 54.96553 24.09649 259 ft 0 kts 174°
2026-05-07 17:03 54.96552 24.09649 259 ft 2 kts 174°
2026-05-07 17:04 54.96499 24.09658 259 ft 11 kts 175°
2026-05-07 17:04 54.96448 24.09642 258 ft 9 kts 267°
2026-05-07 17:04 54.96446 24.09550 257 ft 1 kts 262°
2026-05-07 17:04 54.96446 24.09543 257 ft 0 kts 263°
2026-05-07 17:05 54.96443 24.09473 256 ft 27 kts 270°
2026-05-07 17:05 54.96408 24.08765 255 ft 86 kts 266°
2026-05-07 17:05 54.96338 24.07555 380 ft 110 kts 267°
2026-05-07 17:05 54.96242 24.06150 751 ft 123 kts 268°
2026-05-07 17:06 54.96135 24.04596 1187 ft 134 kts 264°
2026-05-07 17:06 54.95994 24.02764 1468 ft 172 kts 263°
2026-05-07 17:06 54.95788 24.00521 1736 ft 202 kts 261°
2026-05-07 17:06 54.95519 23.98030 2037 ft 219 kts 259°
2026-05-07 17:07 54.95203 23.95366 2399 ft 228 kts 257°
2026-05-07 17:07 54.95087 23.92582 2712 ft 238 kts 276°
2026-05-07 17:07 54.95825 23.90064 2934 ft 242 kts 325°
2026-05-07 17:07 54.97435 23.89516 3100 ft 236 kts
2026-05-07 17:08 54.99026 23.89985 3616 ft 232 kts 11°
2026-05-07 17:08 55.00723 23.89959 3474 ft 256 kts 348°
2026-05-07 17:08 55.02403 23.88894 3651 ft 255 kts 336°
2026-05-07 17:08 55.04052 23.87871 3895 ft 255 kts 344°
2026-05-07 17:09 55.05808 23.87429 4152 ft 256 kts 355°
2026-05-07 17:09 55.07603 23.87310 4428 ft 254 kts 356°
2026-05-07 17:09 55.09343 23.87091 4734 ft 254 kts 352°
2026-05-07 17:09 55.11099 23.86781 5033 ft 253 kts 352°
2026-05-07 17:10 55.12853 23.87063 5311 ft 258 kts 14°
2026-05-07 17:10 55.14431 23.88582 5591 ft 262 kts 40°
2026-05-07 17:10 55.15547 23.91088 5884 ft 263 kts 65°
2026-05-07 17:10 55.16009 23.94144 6175 ft 259 kts 90°
2026-05-07 17:11 55.15973 23.97270 6477 ft 257 kts 96°
2026-05-07 17:11 55.16012 24.00424 6766 ft 261 kts 90°
2026-05-07 17:11 55.16201 24.03597 7057 ft 263 kts 87°
2026-05-07 17:11 55.16394 24.06792 7352 ft 264 kts 88°
2026-05-07 17:12 55.16548 24.10005 7650 ft 265 kts 89°
2026-05-07 17:12 55.16702 24.13234 7946 ft 267 kts 88°
2026-05-07 17:12 55.16863 24.16488 8251 ft 267 kts 89°
2026-05-07 17:12 55.16708 24.19624 8531 ft 261 kts 111°
2026-05-07 17:13 55.15871 24.22372 8816 ft 252 kts 135°
2026-05-07 17:13 55.14695 24.24619 9103 ft 252 kts 139°
2026-05-07 17:13 55.13511 24.26901 9393 ft 254 kts 137°
2026-05-07 17:13 55.12337 24.29222 9686 ft 256 kts 137°
2026-05-07 17:14 55.11150 24.31558 9967 ft 257 kts 138°
2026-05-07 17:14 55.09955 24.33895 10228 ft 259 kts 138°
2026-05-07 17:14 55.08754 24.36241 10489 ft 260 kts 138°
2026-05-07 17:14 55.07545 24.38606 10758 ft 260 kts 138°
2026-05-07 17:15 55.06336 24.40969 11029 ft 261 kts 138°
2026-05-07 17:15 55.05125 24.43332 11295 ft 262 kts 138°
2026-05-07 17:15 55.03909 24.45701 11563 ft 262 kts 138°
2026-05-07 17:15 55.02690 24.48076 11836 ft 263 kts 138°
2026-05-07 17:16 55.01473 24.50440 11985 ft 269 kts 138°
2026-05-07 17:16 55.00203 24.52901 11983 ft 277 kts 138°
2026-05-07 17:16 54.98905 24.55424 11989 ft 282 kts 138°
2026-05-07 17:16 54.97587 24.57982 11990 ft 285 kts 137°
2026-05-07 17:17 54.96259 24.60559 11980 ft 287 kts 137°
2026-05-07 17:17 54.94948 24.63106 11628 ft 267 kts 138°
2026-05-07 17:17 54.93794 24.65365 11300 ft 234 kts 139°
2026-05-07 17:17 54.92763 24.67361 10966 ft 211 kts 139°
2026-05-07 17:18 54.91970 24.69422 10632 ft 199 kts 128°
2026-05-07 17:18 54.91313 24.71448 10307 ft 186 kts 128°
2026-05-07 17:18 54.90674 24.73345 9928 ft 179 kts 130°
2026-05-07 17:18 54.90047 24.75178 9512 ft 174 kts 130°
2026-05-07 17:19 54.89439 24.76968 9106 ft 170 kts 130°
2026-05-07 17:19 54.88829 24.78755 8723 ft 176 kts 129°
2026-05-07 17:19 54.88184 24.80642 8370 ft 186 kts 128°
2026-05-07 17:19 54.87521 24.82602 8039 ft 190 kts 128°
2026-05-07 17:20 54.86847 24.84590 7699 ft 192 kts 128°
2026-05-07 17:20 54.86168 24.86590 7361 ft 193 kts 128°
2026-05-07 17:20 54.85485 24.88600 7028 ft 193 kts 128°
2026-05-07 17:20 54.84798 24.90611 6690 ft 193 kts 128°
2026-05-07 17:21 54.84070 24.92544 6339 ft 186 kts 140°
2026-05-07 17:21 54.83027 24.93682 5957 ft 174 kts 171°
2026-05-07 17:21 54.81848 24.93812 5597 ft 169 kts 187°
2026-05-07 17:21 54.80666 24.93790 5258 ft 170 kts 184°
2026-05-07 17:22 54.79478 24.93831 4915 ft 171 kts 183°
2026-05-07 17:22 54.78290 24.93871 4564 ft 171 kts 182°
2026-05-07 17:22 54.77097 24.93913 4208 ft 172 kts 181°
2026-05-07 17:22 54.75892 24.93951 3869 ft 178 kts 180°
2026-05-07 17:23 54.74641 24.93996 3524 ft 181 kts 179°
2026-05-07 17:23 54.73371 24.94040 3184 ft 184 kts 178°
2026-05-07 17:23 54.72081 24.94081 2953 ft 180 kts 176°
2026-05-07 17:23 54.70879 24.94122 2925 ft 172 kts 175°
2026-05-07 17:24 54.69677 24.94166 2791 ft 174 kts 176°
2026-05-07 17:24 54.68465 24.94206 2654 ft 174 kts 175°
2026-05-07 17:24 54.67274 24.94246 2674 ft 167 kts 175°
2026-05-07 17:24 54.66126 24.94282 2708 ft 164 kts 175°
2026-05-07 17:25 54.64979 24.94324 2708 ft 166 kts 175°
2026-05-07 17:25 54.64216 24.94349 2726 ft 166 kts 175°
2026-05-07 17:25 54.63054 24.94390 2727 ft 167 kts 175°
2026-05-07 17:25 54.61885 24.94427 2725 ft 168 kts 176°
2026-05-07 17:26 54.60699 24.94466 2728 ft 175 kts 175°
2026-05-07 17:26 54.59454 24.94520 2737 ft 181 kts 175°
2026-05-07 17:26 54.58260 24.95135 2732 ft 182 kts 146°
2026-05-07 17:26 54.57318 24.96591 2739 ft 183 kts 133°
2026-05-07 17:27 54.56393 24.98111 2739 ft 184 kts 136°
2026-05-07 17:27 54.55421 24.99555 2739 ft 185 kts 137°
2026-05-07 17:27 54.54440 25.01000 2744 ft 186 kts 137°
2026-05-07 17:27 54.53455 25.02467 2737 ft 189 kts 138°
2026-05-07 17:28 54.52457 25.03953 2736 ft 191 kts 138°
2026-05-07 17:28 54.51459 25.05435 2737 ft 192 kts 137°
2026-05-07 17:28 54.50472 25.06900 2732 ft 173 kts 137°
2026-05-07 17:28 54.49643 25.08119 2715 ft 149 kts 137°
2026-05-07 17:29 54.48850 25.09303 2720 ft 153 kts 137°
2026-05-07 17:29 54.48032 25.10507 2720 ft 156 kts 138°
2026-05-07 17:29 54.47208 25.11732 2713 ft 156 kts 137°
2026-05-07 17:29 54.46409 25.12972 2711 ft 150 kts 130°
2026-05-07 17:30 54.46057 25.14558 2724 ft 142 kts 90°
2026-05-07 17:30 54.46283 25.16172 2716 ft 139 kts 64°
2026-05-07 17:30 54.46979 25.17272 2714 ft 138 kts 25°
2026-05-07 17:30 54.47876 25.17837 2727 ft 139 kts 26°
2026-05-07 17:31 54.48795 25.18500 2745 ft 149 kts 23°
2026-05-07 17:31 54.49795 25.19162 2742 ft 157 kts 23°
2026-05-07 17:31 54.50814 25.19877 2740 ft 160 kts 24°
2026-05-07 17:31 54.51867 25.20594 2740 ft 164 kts 24°
2026-05-07 17:32 54.52932 25.21327 2716 ft 167 kts 24°
2026-05-07 17:32 54.54044 25.22096 2506 ft 179 kts 24°
2026-05-07 17:32 54.55226 25.22918 2267 ft 184 kts 24°
2026-05-07 17:32 54.56412 25.23739 2010 ft 184 kts 24°
2026-05-07 17:33 54.57541 25.24508 1773 ft 148 kts 23°
2026-05-07 17:33 54.58355 25.25075 1570 ft 109 kts 22°
2026-05-07 17:33 54.58990 25.25515 1406 ft 90 kts 21°
2026-05-07 17:33 54.59559 25.25898 1259 ft 88 kts 18°
2026-05-07 17:34 54.60139 25.26291 1098 ft 90 kts 19°
2026-05-07 17:34 54.60701 25.26691 1008 ft 86 kts 17°
2026-05-07 17:34 54.61266 25.27084 882 ft 89 kts 17°
2026-05-07 17:34 54.61837 25.27483 741 ft 87 kts 18°
2026-05-07 17:35 54.62393 25.27872 636 ft 85 kts 17°
2026-05-07 17:35 54.62909 25.28230 599 ft 72 kts 18°
2026-05-07 17:35 54.63216 25.28435 603 ft 26 kts 19°
2026-05-07 17:35 54.63365 25.28537 606 ft 18 kts 27°
2026-05-07 17:36 54.63446 25.28444 607 ft 13 kts 297°
2026-05-07 17:36 54.63526 25.28393 609 ft 9 kts 349°
2026-05-07 17:36 54.63537 25.28389 620 ft 0 kts 346°
2026-05-07 17:37 54.63545 25.28386 616 ft 4 kts 348°
2026-05-07 17:37 54.63589 25.28385 616 ft 9 kts 18°
2026-05-07 17:37 54.63661 25.28433 622 ft 12 kts 22°
2026-05-07 17:38 54.63753 25.28498 622 ft 17 kts 22°
2026-05-07 17:38 54.63870 25.28581 630 ft 17 kts 22°
2026-05-07 17:38 54.63977 25.28656 637 ft 17 kts 23°
2026-05-07 17:38 54.64070 25.28703 642 ft 16 kts 358°
2026-05-07 17:39 54.64199 25.28685 645 ft 20 kts 353°
2026-05-07 17:39 54.64317 25.28666 647 ft 17 kts 352°
2026-05-07 17:39 54.64427 25.28637 648 ft 13 kts 351°
2026-05-07 17:39 54.64513 25.28586 647 ft 15 kts 265°
2026-05-07 17:40 54.64490 25.28408 640 ft 10 kts 259°
2026-05-07 17:40 54.64462 25.28278 636 ft 12 kts 226°
2026-05-07 17:40 54.64451 25.28171 633 ft 3 kts 267°